Starlink 3612

operational
NORAD ID: 51770 Int'l Des: 2022-017 Owner: SPXS Country: US Constellation: starlink
LEOCIRCULAR

Starlink 3612について

説明を読み込み中...

リアルタイム位置

3D地球を読み込み中...

次回通過

高度履歴

Altitude vs Time

uPlot chart will show altitude changes over time

軌道要素

1 51770U 22017C 26036.62320941 .00001472 00000-0 11057-3 0 9997
2 51770 53.2174 123.0721 0001154 85.8008 274.3116 15.08844411217774
Epoch: Feb 5, 2026 • Age: 18 hours

現在のステータス

高度 540.1 km
速度 7.59 km/s
衛星直下点 4.69°N, 21.45°E
打ち上げ日 Feb 25, 2022
運用期間 3.9 years
タイプ internet

技術仕様

分類 Payload
質量 297.00 kg
乾燥質量 275.00 kg
総質量 297.00 kg
長さ 0.20 m
直径 2.80 m
スパン 9.00 m
形状 Box + pan
製造者 SPXS
バスタイプ Starlink
フェーズステータス In Orbit
所有者/国 SPXS/US

大規模コンステレーション

Loading constellations...